Temperature
16 16 16 16 16 16 16 16 16 16 15 14 14 13 13 13 13 13 13 13 13 13 13 13 13 13 13 13 13 12 12 12 12 12 12 12 12 12
16 16 16 16 16 15 15 15 15 16 15 14 14 13 13 13 13 12 13 13 13 13 13 13 12 12 12 12 12 12 12 12 12 12 12 12 12 11
16 16 15 15 15 15 15 15 15 15 15 14 14 13 13 13 13 12 12 12 12 12 12 12 12 12 12 12 12 12 12 12 12 11 11 11 11 11
16 15 15 15 15 15 15 15 15 15 15 14 13 13 13 13 12 12 12 12 12 12 12 12 12 12 12 12 12 11 11 11 11 11 11 11 11 11
15 15 15 15 15 15 15 14 14 14 14 14 13 13 13 12 12 12 12 12 12 12 12 12 12 12 11 11 11 11 11 11 11 11 11 10 10 10
15 15 15 15 15 15 14 14 14 14 14 14 14 13 13 12 12 12 12 12 12 11 11 11 11 11 11 11 11 11 11 11 10 10 10 10 10 10
15 15 14 15 15 15 14 14 14 14 14 14 14 13 13 12 12 12 12 12 11 11 11 11 11 11 11 11 11 11 10 10 10 10 10 10 10 9
14 14 14 14 14 14 14 14 14 13 13 13 13 13 12 12 12 12 12 12 12 11 11 11 11 11 11 10 10 10 10 10 10 10 10 9 9 9
14 14 14 14 14 14 14 14 13 13 13 13 13 12 12 12 12 12 11 12 11 11 11 11 11 11 11 10 10 10 10 10 10 10 9 9 9 9
14 14 13 13 13 13 13 13 13 13 13 12 12 12 12 12 11 11 11 11 11 11 11 11 11 11 11 10 10 10 10 10 10 9 9 9 9 9
13 13 13 13 13 13 13 12 12 12 12 12 12 12 12 12 11 11 11 12 12 12 11 11 11 11 11 10 10 10 10 10 9 9 9 9 9 9
14 13 13 13 13 13 13 12 12 12 12 12 12 12 12 11 11 11 11 11 12 12 11 11 11 11 11 11 10 10 10 9 9 9 9 9 9 8
14 13 13 13 13 13 12 12 12 12 12 12 12 11 11 11 11 11 11 11 11 12 11 11 11 11 11 11 11 10 10 9 9 9 9 9 9 8
13 13 13 13 13 13 12 12 12 12 12 12 12 11 11 11 11 11 10 10 10 10 10 10 10 10 11 11 11 10 10 10 9 9 9 9 9 8
13 13 13 13 13 12 12 12 12 12 12 12 12 11 11 11 11 10 10 10 10 10 10 10 10 10 10 11 11 10 10 10 9 9 9 9 8 8
13 13 13 13 12 12 12 12 12 11 11 11 12 11 11 11 10 10 10 10 10 10 10 10 10 10 10 10 10 10 10 10 10 9 9 9 9 8
13 13 13 12 12 12 12 12 12 11 11 11 11 11 11 11 11 10 10 10 10 10 10 10 10 10 10 10 10 10 10 10 10 9 9 9 9 9
13 13 12 12 12 12 12 12 12 11 11 11 11 11 11 11 11 10 10 10 10 10 10 10 10 9 9 10 10 9 10 10 9 9 9 9 9 9
13 13 12 12 12 12 12 12 12 11 11 11 11 11 11 11 10 10 10 10 10 10 10 10 10 10 10 10 10 9 9 9 9 9 9 9 9 8
13 13 12 12 12 12 12 12 12 11 11 11 11 10 10 10 10 10 10 10 10 10 10 10 10 9 9 10 10 9 9 9 9 9 9 8 8 8
13 13 12 12 12 12 12 12 11 11 11 11 11 10 10 10 10 10 10 10 9 10 10 10 9 9 9 9 9 9 9 9 8 8 8 8 8 8
13 12 12 12 12 12 11 11 11 11 11 11 11 10 10 10 10 10 10 9 9 9 9 9 9 9 9 9 9 9 9 8 8 8 8 7 7 7
12 12 12 12 12 11 11 11 11 11 10 10 10 10 10 10 10 10 9 9 9 9 9 9 9 8 9 9 9 9 9 8 8 8 7 7 7 7
Wind_Speed
2 1 2 0 1 2 2 2 2 2 1 2 1 2 2 4 3 4 6 8 8 8 8 8 9 9 10 10 10 9 9 9 8 7 6 6 5 5
2 2 2 1 0 1 2 2 2 2 1 2 2 2 3 4 4 4 6 9 7 7 7 7 8 9 9 9 9 10 10 10 9 9 8 7 7 6
1 1 1 1 1 1 1 1 1 1 2 2 3 4 3 2 4 4 4 4 6 7 7 7 7 8 8 8 8 9 9 9 9 8 8 8 7 6
1 1 1 0 0 1 1 0 0 1 2 3 3 4 4 4 3 3 3 4 5 9 8 7 7 7 7 7 8 8 8 8 8 7 7 6 6 5
1 1 1 0 0 1 1 0 1 2 2 3 3 3 3 3 4 3 3 2 3 8 9 8 7 6 6 6 7 7 7 7 6 6 6 5 5 5
1 1 1 1 1 0 1 0 0 1 2 3 3 3 3 3 3 3 3 3 2 4 5 6 8 9 7 7 6 6 6 5 5 5 5 4 4 4
1 1 2 3 5 2 1 0 1 2 2 2 3 3 3 3 3 3 2 3 3 2 3 4 6 6 8 9 7 6 5 5 4 4 4 4 3 3
1 1 2 3 2 2 4 4 2 1 1 1 2 2 3 3 3 3 2 3 2 2 3 3 3 3 4 5 9 9 7 6 5 4 4 4 4 4
1 1 1 2 2 1 2 3 1 1 2 3 2 3 3 3 3 4 3 3 2 2 3 3 3 3 4 6 11 10 9 8 7 6 6 6 6 5
2 1 1 1 1 1 2 2 2 2 2 3 2 3 3 2 4 4 4 4 4 3 4 4 4 4 4 5 13 12 11 10 9 8 8 8 7 8
2 2 2 1 2 2 2 2 2 2 2 1 1 1 1 2 3 4 4 5 5 4 5 5 4 4 4 5 10 16 15 13 12 11 10 10 10 10
3 3 2 1 3 2 3 3 3 3 2 3 3 4 4 5 6 6 5 6 5 4 4 4 4 4 4 4 4 8 11 14 15 14 13 12 10 9
3 3 3 6 4 4 5 3 3 3 4 4 4 4 4 4 5 6 6 6 6 5 3 5 5 5 5 4 4 5 6 6 9 11 14 15 13 10
3 3 3 7 6 6 5 2 3 5 5 4 4 4 4 4 4 5 5 6 6 6 5 6 6 5 6 5 4 4 5 5 6 6 6 11 15 16
3 1 3 7 7 6 6 6 6 6 5 5 5 5 5 4 4 5 5 6 7 7 7 7 7 6 7 7 5 5 4 5 5 5 5 6 6 7
5 4 7 7 6 4 5 6 6 6 6 6 5 4 4 4 5 5 5 5 6 6 7 8 8 8 8 7 6 6 6 5 5 5 5 5 6 7
5 5 5 5 5 6 6 6 6 6 6 6 5 5 5 5 5 5 5 6 6 6 6 5 7 9 8 7 7 7 6 6 5 3 5 6 6 6
5 5 5 5 6 6 6 6 6 6 6 6 6 5 5 5 5 5 6 6 7 6 5 5 5 5 6 6 7 7 6 6 5 4 6 6 6 5
6 6 6 6 6 6 6 6 6 5 5 6 6 6 6 6 5 6 6 6 6 6 6 5 5 6 8 7 6 9 7 6 5 5 6 6 6 5
7 7 7 7 7 7 6 6 5 5 5 5 6 6 6 6 6 6 6 6 6 6 6 6 5 6 7 7 6 5 9 7 6 6 6 6 5 3
7 7 7 7 7 7 6 5 6 5 6 6 6 6 6 6 6 7 7 6 7 7 7 6 5 6 7 6 7 7 5 8 7 6 6 6 6 6
7 7 7 7 6 6 6 6 6 6 6 7 6 6 6 6 7 7 7 6 7 7 7 6 4 5 7 7 8 7 5 4 7 10 9 8 6 6
6 6 6 6 7 6 6 7 7 6 6 6 6 6 6 6 7 6 6 6 6 7 7 6 6 6 7 7 7 7 6 6 5 5 6 9 11 9
Wind_Direction
304 265 265 255 221 218 216 222 238 231 167 143 152 114 119 99 104 106 97 92 88 84 80 78 78 76 77 78 79 82 87 92 94 94 96 99 105 103
335 340 308 296 218 214 213 228 255 254 179 148 148 137 122 128 126 117 110 109 96 95 89 88 89 87 84 83 82 87 88 90 90 89 89 92 95 97
318 309 315 327 315 247 221 235 226 213 177 158 133 128 144 148 133 141 141 135 116 112 102 98 97 95 93 91 90 93 92 91 92 93 93 91 88 90
342 339 315 315 14 323 315 264 178 179 185 162 156 157 164 163 157 175 150 138 122 123 121 112 107 104 101 99 99 99 97 95 93 94 94 94 93 91
12 354 344 13 9 61 283 243 192 171 163 166 167 157 167 167 170 176 161 160 154 145 146 140 132 125 118 114 112 109 106 104 102 101 99 99 100 99
45 48 55 70 73 155 198 216 198 168 162 174 161 162 164 169 195 191 182 180 180 162 154 155 156 155 146 141 137 131 126 123 121 117 114 114 115 113
92 87 84 62 40 13 342 186 184 204 182 175 168 166 165 178 205 206 198 187 174 197 184 178 175 178 169 167 164 160 157 155 152 146 139 140 144 143
112 110 131 121 94 69 30 29 13 233 226 223 195 187 191 202 206 222 217 218 206 191 217 204 198 195 182 169 160 168 174 177 178 176 174 177 180 184
140 182 232 110 161 170 152 160 119 30 331 271 248 241 217 210 221 223 224 244 253 210 229 235 217 217 198 161 156 171 181 188 193 197 200 204 209 212
179 186 210 162 182 238 208 185 192 184 230 249 260 263 253 225 223 237 234 226 226 222 227 244 229 226 216 177 167 179 189 197 204 209 212 219 226 231
193 196 225 201 96 296 232 214 208 196 161 118 335 315 359 209 238 235 226 233 234 214 208 241 242 236 229 210 183 186 195 202 209 215 221 227 235 241
186 187 159 201 146 223 226 226 231 238 222 186 194 209 211 203 217 241 243 247 249 235 200 225 238 238 238 224 204 192 201 207 212 217 221 227 234 244
209 207 174 151 182 221 253 247 247 253 235 228 221 215 214 215 218 224 244 259 260 251 213 215 241 242 248 244 222 215 218 215 213 217 218 220 223 231
230 225 158 153 191 219 234 229 237 249 242 239 239 236 235 233 231 236 238 248 262 263 257 252 252 252 254 254 247 229 226 227 231 235 231 211 217 222
231 120 133 169 194 210 213 220 226 237 243 244 246 245 245 244 241 234 232 235 242 242 237 243 245 244 250 257 260 252 244 236 231 240 243 235 229 226
227 183 178 192 221 233 206 215 233 245 252 252 256 255 248 237 239 243 243 235 237 233 224 230 235 243 248 251 257 254 250 248 241 241 249 249 238 233
212 209 209 206 214 223 226 227 231 230 239 247 251 252 247 244 244 243 244 246 245 243 233 220 224 230 242 251 252 252 251 252 250 249 254 259 255 246
209 219 223 225 229 233 233 230 230 234 238 241 243 247 250 247 245 243 243 246 249 250 247 234 228 227 233 231 231 249 252 255 252 233 249 258 257 252
211 228 234 238 241 240 240 242 240 236 241 243 244 247 249 249 250 249 249 251 252 251 249 241 234 237 244 245 223 221 244 254 253 249 249 257 261 261
226 233 238 239 240 241 239 241 243 238 234 239 241 244 246 247 249 251 250 252 251 251 252 250 244 247 255 262 262 236 216 239 253 256 258 261 263 252
230 234 241 243 244 242 240 238 237 237 238 239 240 243 245 244 247 250 250 240 247 249 250 252 248 243 254 258 258 254 233 209 226 250 261 267 265 258
236 240 243 246 246 247 241 236 235 234 234 238 241 242 242 243 247 252 254 249 247 251 259 263 255 246 249 252 259 262 253 235 220 223 236 248 268 272
239 243 241 241 240 241 240 235 234 236 236 240 240 244 245 245 248 251 251 251 250 249 253 258 256 250 252 251 256 264 259 255 251 239 233 217 221 234
Height
1543 1542 1542 1542 1542 1542 1542 1542 1543 1543 1544 1543 1544 1543 1543 1542 1542 1542 1541 1540 1540 1539 1538 1538 1538 1538 1537 1537 1537 1537 1537 1537 1537 1537 1538 1538 1538 1539
1541 1541 1541 1542 1541 1541 1541 1541 1542 1542 1542 1542 1542 1542 1542 1542 1541 1541 1541 1540 1539 1539 1538 1538 1538 1537 1537 1537 1537 1537 1536 1536 1536 1537 1537 1537 1537 1537
1541 1540 1540 1540 1540 1540 1540 1540 1540 1541 1541 1541 1541 1541 1541 1541 1541 1541 1541 1540 1539 1538 1538 1538 1537 1537 1537 1537 1537 1537 1536 1536 1536 1536 1536 1536 1536 1536
1540 1539 1539 1539 1539 1539 1539 1539 1539 1539 1540 1540 1540 1540 1540 1540 1540 1540 1541 1540 1539 1538 1538 1537 1537 1537 1537 1536 1536 1536 1536 1536 1535 1535 1535 1535 1535 1535
1539 1538 1538 1538 1538 1538 1538 1538 1539 1539 1538 1539 1539 1539 1539 1540 1539 1540 1540 1539 1539 1538 1537 1537 1537 1536 1536 1536 1536 1536 1535 1535 1535 1535 1534 1534 1534 1534
1538 1537 1537 1537 1537 1537 1537 1537 1537 1537 1537 1538 1538 1538 1538 1538 1539 1539 1539 1539 1539 1539 1538 1537 1536 1536 1536 1535 1535 1535 1535 1534 1534 1534 1533 1533 1532 1532
1537 1537 1537 1536 1536 1536 1536 1536 1536 1537 1537 1537 1537 1538 1538 1537 1538 1538 1538 1538 1537 1538 1538 1537 1537 1536 1535 1534 1534 1534 1534 1533 1533 1533 1532 1531 1531 1531
1537 1536 1536 1535 1535 1534 1534 1534 1534 1535 1536 1536 1536 1536 1536 1536 1536 1537 1537 1537 1537 1537 1537 1537 1536 1536 1535 1534 1533 1533 1532 1532 1531 1531 1531 1530 1530 1529
1535 1535 1536 1535 1534 1534 1533 1533 1533 1533 1533 1534 1535 1534 1534 1534 1534 1535 1535 1535 1535 1535 1535 1535 1535 1534 1534 1532 1531 1531 1531 1530 1530 1529 1529 1529 1528 1528
1534 1533 1533 1533 1532 1532 1532 1532 1532 1531 1531 1532 1532 1532 1532 1531 1531 1532 1532 1532 1532 1532 1532 1532 1532 1532 1532 1531 1529 1529 1529 1528 1528 1527 1527 1527 1526 1526
1532 1532 1531 1531 1530 1530 1530 1530 1530 1530 1529 1529 1529 1529 1529 1528 1529 1530 1530 1530 1530 1530 1529 1530 1530 1530 1529 1529 1527 1526 1526 1526 1525 1525 1525 1524 1524 1524
1530 1530 1529 1529 1529 1528 1528 1529 1529 1528 1528 1528 1527 1527 1527 1526 1526 1526 1527 1528 1527 1527 1526 1526 1527 1527 1527 1526 1525 1524 1524 1523 1522 1522 1522 1521 1521 1521
1529 1528 1528 1527 1527 1526 1526 1526 1526 1526 1526 1526 1526 1525 1525 1524 1524 1524 1524 1524 1524 1524 1524 1523 1524 1524 1523 1523 1523 1522 1522 1521 1520 1519 1519 1518 1518 1518
1525 1526 1526 1525 1524 1524 1524 1524 1524 1524 1525 1525 1524 1524 1523 1522 1521 1521 1520 1520 1519 1520 1519 1519 1520 1520 1520 1519 1519 1518 1518 1518 1517 1517 1516 1515 1515 1514
1522 1522 1522 1522 1522 1522 1522 1521 1521 1522 1522 1522 1521 1521 1520 1519 1518 1517 1516 1515 1515 1515 1515 1514 1515 1515 1515 1515 1515 1515 1514 1514 1513 1513 1513 1512 1511 1511
1518 1518 1519 1519 1519 1519 1519 1519 1519 1519 1519 1519 1518 1518 1517 1516 1515 1514 1514 1513 1512 1511 1510 1509 1509 1510 1511 1511 1511 1510 1510 1510 1509 1509 1509 1508 1508 1507
1515 1515 1515 1516 1516 1516 1516 1515 1515 1515 1514 1514 1514 1514 1513 1512 1511 1511 1510 1509 1508 1507 1506 1506 1505 1505 1505 1506 1506 1505 1505 1505 1505 1505 1504 1504 1504 1503
1511 1511 1511 1512 1512 1512 1512 1512 1512 1511 1511 1511 1510 1510 1509 1508 1507 1507 1506 1505 1504 1503 1503 1502 1502 1501 1501 1501 1501 1501 1501 1501 1501 1500 1500 1500 1499 1499
1507 1507 1507 1508 1508 1508 1508 1508 1508 1507 1507 1507 1506 1505 1505 1504 1503 1502 1501 1500 1499 1499 1498 1498 1497 1497 1496 1496 1495 1496 1496 1496 1496 1496 1495 1495 1495 1494
1502 1502 1503 1503 1503 1503 1503 1503 1502 1502 1501 1501 1501 1500 1500 1499 1498 1497 1496 1496 1495 1494 1493 1493 1493 1492 1492 1492 1491 1491 1491 1491 1491 1491 1491 1490 1490 1489
1497 1498 1498 1499 1499 1498 1498 1498 1497 1497 1496 1496 1496 1495 1495 1494 1493 1492 1491 1490 1489 1489 1489 1488 1488 1488 1487 1488 1487 1486 1486 1485 1485 1486 1486 1486 1485 1485
1492 1493 1493 1494 1494 1493 1493 1492 1492 1491 1491 1491 1491 1490 1490 1489 1488 1487 1486 1485 1484 1484 1484 1484 1483 1483 1483 1483 1482 1482 1481 1481 1480 1480 1480 1480 1480 1480
1487 1487 1487 1488 1488 1488 1487 1487 1486 1486 1486 1486 1485 1485 1485 1484 1483 1482 1482 1481 1480 1480 1479 1479 1479 1478 1478 1478 1478 1477 1477 1476 1476 1476 1475 1475 1475 1475